Butler, GA

1:38 PM EST on December 14, 2019 (GMT -0500)
Butler

Weather History for K6A1 - October, 2019

Change the Weather History Date:

Thursday, October 3, 2019

  Actual Average (KMCN) Record (KMCN)
Temperature  
Mean Temperature 85 °F -  
Max Temperature 97 °F 82 °F 102 °F (2019)
Min Temperature 73 °F 55 °F 39 °F (2011)
Cooling Degree Days 20    
Growing Degree Days 35 (Base 50)    
Moisture  
Dew Point 63 °F    
Average Humidity 51    
Maximum Humidity 76    
Minimum Humidity 28    
Precipitation  
Precipitation 0.00 in - - ()
Sea Level Pressure  
Sea Level Pressure 30.03 in    
Wind  
Wind Speed 4 mph ()    
Max Wind Speed 9 mph    
Max Gust Speed 21 mph    
Visibility 10.0 miles    
Events Rain    
Averages and records for this station are not official NWS values.
T = Trace of Precipitation, MM = Missing Value Source: Averaged Metar Reports

Daily Weather History Graph

Daily Weather History Graph

Search for Another Location

Airport or City:

Astronomy

Oct. 03, 2019 Rise Set
Actual Time 7:32 AM EDT 7:19 PM EDT
Civil Twilight 7:07 AM EDT 7:43 PM EDT
Nautical Twilight 6:39 AM EDT 8:12 PM EDT
Astronomical Twilight 6:10 AM EDT 8:40 PM EDT
Moon 12:46 PM EDT (10/3) 11:14 PM EDT (10/3)
Length of Visible Light 12h 36m
Length of Day
11h 47m
Waxing Crescent, 29% of the Moon is Illuminated
Oct 3
Waxing Crescent
Oct 5
First Quarter
Oct 13
Full
Oct 21
Last Quarter
Oct 27
New

Hourly Weather History & Observations

Time (EDT) Temp. Heat Index Dew Point Humidity Pressure Visibility Wind Dir Wind Speed Gust Speed Precip Events Conditions
12:15 AM 79.7 °F - 64.4 °F 59% 30.02 in 10.0 mi SW 5.8 mph - N/A   Unknown
12:35 AM 79.7 °F - 64.0 °F 59% 30.02 in 10.0 mi SW 4.6 mph - N/A   Unknown
12:55 AM 79.9 °F - 64.0 °F 58% 30.02 in 10.0 mi SSW 3.5 mph - N/A   Unknown
1:15 AM 79.7 °F - 64.0 °F 59% 30.02 in 10.0 mi SSW 3.5 mph - N/A   Unknown
1:35 AM 79.0 °F - 64.0 °F 60% 30.02 in 10.0 mi SSW 3.5 mph - N/A   Unknown
1:55 AM 78.4 °F - 64.0 °F 61% 30.03 in 10.0 mi SSW 4.6 mph - N/A   Unknown
2:15 AM 78.4 °F - 63.9 °F 61% 30.03 in 10.0 mi SSW 4.6 mph - N/A   Unknown
2:35 AM 78.1 °F - 63.9 °F 61% 30.03 in 10.0 mi SW 4.6 mph - N/A   Unknown
2:55 AM 77.9 °F - 63.7 °F 61% 30.02 in 10.0 mi SW 3.5 mph - N/A   Unknown
3:15 AM 77.4 °F - 63.7 °F 63% 30.02 in 10.0 mi Calm Calm - N/A   Unknown
3:35 AM 76.3 °F - 63.9 °F 65% 30.03 in 10.0 mi Calm Calm - N/A   Unknown
3:55 AM 75.9 °F - 64.0 °F 67% 30.03 in 10.0 mi SSW 3.5 mph - N/A   Unknown
4:15 AM 75.4 °F - 64.4 °F 69% 30.03 in 10.0 mi SSW 4.6 mph - N/A   Unknown
4:35 AM 74.7 °F - 64.4 °F 70% 30.03 in 10.0 mi SSW 4.6 mph - N/A   Unknown
4:55 AM 74.7 °F - 64.4 °F 70% 30.04 in 10.0 mi SSW 3.5 mph - N/A   Unknown
5:15 AM 74.3 °F - 64.4 °F 71% 30.04 in 10.0 mi SW 4.6 mph - N/A   Unknown
5:35 AM 74.3 °F - 64.8 °F 72% 30.04 in 10.0 mi SW 5.8 mph - N/A   Unknown
5:55 AM 73.6 °F - 64.9 °F 74% 30.04 in 10.0 mi SW 5.8 mph - N/A   Unknown
6:15 AM 73.4 °F - 64.9 °F 75% 30.05 in 10.0 mi SW 5.8 mph - N/A   Unknown
6:35 AM 74.3 °F - 64.9 °F 72% 30.05 in 10.0 mi WSW 5.8 mph - N/A   Unknown
6:55 AM 73.8 °F - 65.1 °F 74% 30.05 in 10.0 mi WSW 5.8 mph - N/A   Unknown
7:15 AM 73.6 °F - 65.3 °F 75% 30.06 in 10.0 mi WSW 4.6 mph - N/A   Unknown
7:35 AM 73.8 °F - 65.3 °F 75% 30.07 in 10.0 mi WSW 5.8 mph - N/A   Unknown
7:55 AM 73.6 °F - 65.5 °F 76% 30.07 in 10.0 mi WSW 4.6 mph - N/A   Unknown
8:15 AM 74.7 °F - 65.7 °F 73% 30.07 in 10.0 mi WSW 4.6 mph - N/A   Unknown
8:35 AM 76.5 °F - 65.8 °F 70% 30.08 in 10.0 mi WSW 4.6 mph - N/A   Unknown
8:55 AM 78.1 °F - 65.8 °F 66% 30.08 in 10.0 mi WSW 8.1 mph - N/A   Unknown
9:15 AM 79.7 °F - 65.5 °F 62% 30.08 in 10.0 mi WSW 6.9 mph - N/A   Unknown
9:35 AM 80.8 °F 82.5 °F 64.9 °F 58% 30.08 in 10.0 mi West 5.8 mph - N/A   Unknown
9:55 AM 82.2 °F 83.8 °F 64.4 °F 55% 30.09 in 10.0 mi West 3.5 mph - N/A   Unknown
10:15 AM 84.4 °F 85.6 °F 63.7 °F 50% 30.08 in 10.0 mi West 3.5 mph - N/A   Unknown
10:35 AM 85.3 °F 86.6 °F 63.9 °F 49% 30.08 in 10.0 mi NNW 3.5 mph - N/A   Unknown
10:55 AM 87.6 °F 88.5 °F 63.3 °F 44% 30.08 in 10.0 mi NNW 6.9 mph - N/A   Unknown
11:15 AM 88.5 °F 89.8 °F 63.9 °F 44% 30.08 in 10.0 mi WNW 4.6 mph - N/A   Unknown
11:35 AM 89.6 °F 91.1 °F 64.2 °F 43% 30.07 in 10.0 mi NNE 6.9 mph - N/A   Unknown
11:55 AM 91.2 °F 92.5 °F 63.7 °F 40% 30.07 in 10.0 mi North 5.8 mph - N/A   Unknown
12:15 PM 92.7 °F 93.6 °F 63.0 °F 37% 30.06 in 10.0 mi North 9.2 mph - N/A   Unknown
12:35 PM 93.6 °F 94.6 °F 63.1 °F 36% 30.06 in 10.0 mi NE 5.8 mph - N/A   Unknown
12:55 PM 94.6 °F 95.5 °F 62.4 °F 34% 30.05 in 10.0 mi North 5.8 mph - N/A   Unknown
1:15 PM 95.4 °F 96.2 °F 61.9 °F 33% 30.04 in 10.0 mi ENE 6.9 mph - N/A   Unknown
1:35 PM 96.6 °F 96.8 °F 60.4 °F 30% 30.04 in 10.0 mi SSE 4.6 mph - N/A   Unknown
1:55 PM 96.3 °F 96.7 °F 61.0 °F 31% 30.03 in 10.0 mi NE 3.5 mph - N/A   Unknown
2:15 PM 97.7 °F 98.5 °F 61.2 °F 30% 30.02 in 10.0 mi NNE 9.2 mph - N/A   Unknown
2:35 PM 97.2 °F 97.2 °F 60.1 °F 29% 30.01 in 10.0 mi NW 3.5 mph - N/A   Unknown
2:55 PM 95.7 °F 95.5 °F 59.5 °F 30% 30.01 in 10.0 mi SSE 5.8 mph - N/A   Unknown
3:15 PM 95.0 °F 94.4 °F 59.4 °F 30% 30.01 in 10.0 mi East 5.8 mph - N/A   Unknown
3:35 PM 97.0 °F 96.9 °F 59.9 °F 29% 30.00 in 10.0 mi WSW 3.5 mph - N/A   Unknown
3:55 PM 97.9 °F 97.8 °F 59.5 °F 28% 29.99 in 10.0 mi West 3.5 mph - N/A   Unknown
4:15 PM 88.2 °F 89.0 °F 63.3 °F 43% 29.99 in 10.0 mi SW 8.1 mph 20.7 mph N/A Rain Light Rain
4:35 PM 91.4 °F 92.1 °F 62.6 °F 38% 29.99 in 10.0 mi WNW 4.6 mph - N/A   Unknown
4:55 PM 90.1 °F 92.7 °F 66.2 °F 45% 29.99 in 10.0 mi WSW 3.5 mph - N/A   Unknown
5:15 PM 95.4 °F 95.3 °F 59.9 °F 31% 29.98 in 10.0 mi Calm Calm - N/A   Unknown
5:35 PM 95.2 °F 94.7 °F 59.5 °F 30% 29.98 in 10.0 mi Calm Calm - N/A   Unknown
5:55 PM 95.5 °F 95.2 °F 59.9 °F 30% 29.98 in 10.0 mi North 3.5 mph - N/A   Unknown
6:15 PM 95.4 °F 95.7 °F 61.2 °F 32% 29.98 in 10.0 mi NW 3.5 mph - N/A   Unknown
6:35 PM 94.1 °F 94.6 °F 61.3 °F 34% 29.99 in 10.0 mi Calm Calm - N/A   Unknown
6:55 PM 93.2 °F 93.7 °F 61.7 °F 35% 29.99 in 10.0 mi Calm Calm - N/A   Unknown
7:15 PM 91.4 °F 92.1 °F 62.6 °F 38% 29.99 in 10.0 mi WNW 3.5 mph - N/A   Unknown
7:35 PM 89.4 °F 90.8 °F 64.2 °F 43% 29.99 in 10.0 mi WNW 3.5 mph - N/A   Unknown
7:55 PM 88.9 °F 90.0 °F 63.9 °F 43% 29.99 in 10.0 mi WNW 4.6 mph - N/A   Unknown
8:15 PM 86.7 °F 89.0 °F 65.8 °F 50% 29.99 in 10.0 mi WSW 3.5 mph - N/A   Unknown
8:35 PM 87.8 °F 88.8 °F 63.1 °F 44% 30.00 in 10.0 mi Calm Calm - N/A   Unknown
8:55 PM 85.1 °F 86.1 °F 63.5 °F 48% 30.01 in 10.0 mi South 3.5 mph - N/A   Unknown
9:15 PM 85.1 °F 86.1 °F 63.1 °F 48% 30.02 in 10.0 mi SSW 3.5 mph - N/A   Unknown
9:35 PM 84.4 °F 85.4 °F 63.5 °F 49% 30.02 in 10.0 mi SSW 3.5 mph - N/A   Unknown
9:55 PM 84.4 °F 85.2 °F 63.0 °F 48% 30.02 in 10.0 mi SSW 4.6 mph - N/A   Unknown
10:15 PM 85.6 °F 86.3 °F 62.8 °F 46% 30.02 in 10.0 mi SSW 4.6 mph - N/A   Unknown
10:35 PM 84.2 °F 85.2 °F 63.3 °F 49% 30.03 in 10.0 mi SSW 5.8 mph - N/A   Unknown
10:55 PM 83.5 °F 84.5 °F 63.1 °F 50% 30.04 in 10.0 mi SW 5.8 mph - N/A   Unknown
11:15 PM 82.8 °F 84.0 °F 63.5 °F 52% 30.04 in 10.0 mi SW 4.6 mph - N/A   Unknown
11:35 PM 82.2 °F 83.5 °F 63.5 °F 53% 30.04 in 10.0 mi SW 5.8 mph - N/A   Unknown
11:55 PM 81.5 °F 82.8 °F 63.5 °F 54% 30.04 in 10.0 mi SW 5.8 mph - N/A   Unknown